• In Belarus
  • List of Countries
  • For 7 days
  • Water Temperature
  • Weather Map
  • Weather Widgets
  • user-avatar
    Login

    Hourly Weather Nyasvizh

    Today, 28 February, Friday

    Time Temperature Precipitation Wind Pressure Humidity
    00:00 -2°C° 0 mm 3 mps 732 mmHg 82%
    01:00 -2°C° 0 mm 3 mps 732 mmHg 82%
    02:00 -2°C° 0 mm 3 mps 732 mmHg 80%
    03:00 -2°C° 0 mm 3 mps 732 mmHg 81%
    04:00 -3°C° 0 mm 4 mps 733 mmHg 82%
    05:00 -3°C° 0 mm 4 mps 733 mmHg 82%
    06:00 -3°C° 0 mm 4 mps 733 mmHg 82%
    07:00 -3°C° 0 mm 4 mps 733 mmHg 81%
    08:00 -3°C° 0 mm 4 mps 734 mmHg 80%
    09:00 -2°C° 0 mm 5 mps 734 mmHg 74%
    10:00 -1°C° 0 mm 5 mps 734 mmHg 69%
    11:00 -1°C° 0 mm 6 mps 735 mmHg 63%
    12:00 +1°C° 0 mm 6 mps 735 mmHg 63%
    13:00 +1°C° 0 mm 6 mps 735 mmHg 63%
    14:00 +1°C° 0 mm 6 mps 735 mmHg 63%
    15:00 +1°C° 0 mm 6 mps 736 mmHg 65%
    16:00 0°C° 0 mm 5 mps 736 mmHg 67%
    17:00 0°C° 0 mm 4 mps 736 mmHg 68%
    18:00 -1°C° 0 mm 4 mps 737 mmHg 71%
    19:00 -1°C° 0 mm 4 mps 737 mmHg 74%
    20:00 -2°C° 0 mm 4 mps 738 mmHg 77%
    21:00 -2°C° 0 mm 3 mps 738 mmHg 79%
    22:00 -2°C° 0 mm 3 mps 739 mmHg 80%
    23:00 -2°C° 0 mm 3 mps 739 mmHg 82%

    Tomorrow, 29 February, Saturday

    Time Temperature Precipitation Wind Pressure Humidity
    00:00 -2°C° 0 mm 3 mps 739 mmHg 82%
    01:00 -2°C° 0 mm 3 mps 740 mmHg 81%
    02:00 -2°C° 0 mm 3 mps 740 mmHg 80%
    03:00 -2°C° 0 mm 3 mps 740 mmHg 82%
    04:00 -2°C° 0 mm 3 mps 740 mmHg 84%
    05:00 -3°C° 0 mm 4 mps 740 mmHg 86%
    06:00 -3°C° 0 mm 4 mps 740 mmHg 88%
    07:00 -3°C° 0 mm 4 mps 740 mmHg 90%
    08:00 -3°C° 0 mm 4 mps 740 mmHg 92%
    09:00 -2°C° 0.1 mm 4 mps 740 mmHg 88%
    10:00 -1°C° 0.1 mm 5 mps 740 mmHg 84%
    11:00 0°C° 0.1 mm 5 mps 740 mmHg 80%
    12:00 0°C° 0 mm 5 mps 740 mmHg 78%
    13:00 0°C° 0 mm 5 mps 740 mmHg 75%
    14:00 +1°C° 0 mm 5 mps 740 mmHg 72%
    15:00 0°C° 0 mm 4 mps 740 mmHg 74%
    16:00 +1°C° 0 mm 3 mps 740 mmHg 76%
    17:00 +2°C° 0 mm 2 mps 740 mmHg 78%
    18:00 +1°C° 0 mm 2 mps 740 mmHg 80%
    19:00 0°C° 0 mm 3 mps 740 mmHg 82%
    20:00 -2°C° 0 mm 4 mps 740 mmHg 83%
    21:00 -2°C° 0 mm 4 mps 740 mmHg 82%
    22:00 -2°C° 0 mm 5 mps 740 mmHg 81%
    23:00 -2°C° 0 mm 5 mps 739 mmHg 80%

    Day after tomorrow, 1 March, Sunday

    Time Temperature Precipitation Wind Pressure Humidity
    00:00 -1°C° 0 mm 5 mps 739 mmHg 78%
    01:00 -2°C° 0 mm 6 mps 739 mmHg 75%
    02:00 -2°C° 0 mm 6 mps 739 mmHg 73%
    03:00 -2°C° 0 mm 6 mps 738 mmHg 72%
    04:00 -2°C° 0 mm 6 mps 738 mmHg 72%
    05:00 -2°C° 0 mm 6 mps 738 mmHg 71%
    06:00 -2°C° 0 mm 6 mps 737 mmHg 71%
    07:00 -1°C° 0 mm 6 mps 737 mmHg 70%
    08:00 -1°C° 0 mm 6 mps 737 mmHg 69%
    09:00 -1°C° 0 mm 7 mps 737 mmHg 68%
    10:00 0°C° 0 mm 7 mps 737 mmHg 66%
    11:00 +2°C° 0 mm 7 mps 737 mmHg 65%
    12:00 0°C° 0.3 mm 7 mps 737 mmHg 71%
    13:00 0°C° 0.3 mm 7 mps 737 mmHg 78%
    14:00 0°C° 0.3 mm 7 mps 737 mmHg 84%
    15:00 +1°C° 0.5 mm 6 mps 737 mmHg 87%
    16:00 +1°C° 0.5 mm 6 mps 737 mmHg 90%
    17:00 +1°C° 0.5 mm 5 mps 737 mmHg 93%
    18:00 +1°C° 0 mm 5 mps 737 mmHg 93%
    19:00 +1°C° 0 mm 4 mps 737 mmHg 93%
    20:00 +1°C° 0 mm 4 mps 737 mmHg 93%
    21:00 +1°C° 0 mm 4 mps 737 mmHg 94%
    22:00 +1°C° 0 mm 4 mps 737 mmHg 95%
    23:00 +2°C° 0 mm 3 mps 737 mmHg 96%

    2 March, Monday

    Time Temperature Precipitation Wind Pressure Humidity
    00:00 +1°C° 0 mm 4 mps 737 mmHg 95%
    01:00 +1°C° 0 mm 4 mps 737 mmHg 95%
    02:00 +1°C° 0 mm 4 mps 737 mmHg 95%
    03:00 +1°C° 0.3 mm 4 mps 737 mmHg 95%
    04:00 +2°C° 0.3 mm 3 mps 737 mmHg 96%
    05:00 +2°C° 0.3 mm 3 mps 736 mmHg 96%
    06:00 +2°C° 0.2 mm 3 mps 737 mmHg 96%
    07:00 +2°C° 0.2 mm 3 mps 737 mmHg 96%
    08:00 +3°C° 0.2 mm 2 mps 737 mmHg 96%
    09:00 +3°C° 0.1 mm 3 mps 737 mmHg 94%
    10:00 +3°C° 0.1 mm 3 mps 736 mmHg 92%
    11:00 +3°C° 0.1 mm 3 mps 736 mmHg 90%
    12:00 +4°C° 0 mm 3 mps 736 mmHg 88%
    13:00 +4°C° 0 mm 4 mps 736 mmHg 85%
    14:00 +4°C° 0 mm 4 mps 735 mmHg 83%
    15:00 +4°C° 0.3 mm 4 mps 735 mmHg 86%
    16:00 +3°C° 0.3 mm 5 mps 734 mmHg 88%
    17:00 +2°C° 0.3 mm 5 mps 734 mmHg 91%
    18:00 +2°C° 0.3 mm 5 mps 733 mmHg 91%
    19:00 +2°C° 0.3 mm 5 mps 733 mmHg 91%
    20:00 +2°C° 0.3 mm 6 mps 733 mmHg 90%
    21:00 +2°C° 0.4 mm 5 mps 733 mmHg 91%
    22:00 +2°C° 0.4 mm 5 mps 732 mmHg 92%
    23:00 +2°C° 0.4 mm 5 mps 732 mmHg 93%

    3 March, Tuesday

    Time Temperature Precipitation Wind Pressure Humidity
    00:00 +3°C° 0.4 mm 4 mps 732 mmHg 93%
    01:00 +3°C° 0.4 mm 4 mps 732 mmHg 94%
    02:00 +4°C° 0.4 mm 4 mps 732 mmHg 94%
    03:00 +4°C° 0.2 mm 3 mps 732 mmHg 95%
    04:00 +4°C° 0.2 mm 3 mps 732 mmHg 96%
    05:00 +4°C° 0.2 mm 3 mps 732 mmHg 97%
    06:00 +4°C° 0 mm 3 mps 733 mmHg 96%
    07:00 +4°C° 0 mm 3 mps 733 mmHg 96%
    08:00 +4°C° 0 mm 3 mps 734 mmHg 95%
    09:00 +4°C° 0 mm 3 mps 735 mmHg 90%
    10:00 +5°C° 0 mm 3 mps 735 mmHg 86%
    11:00 +7°C° 0 mm 3 mps 736 mmHg 81%
    12:00 +7°C° 0 mm 3 mps 736 mmHg 81%
    13:00 +7°C° 0 mm 3 mps 736 mmHg 80%
    14:00 +7°C° 0 mm 3 mps 737 mmHg 79%
    15:00 +7°C° 0 mm 3 mps 737 mmHg 79%
    16:00 +7°C° 0 mm 2 mps 737 mmHg 79%
    17:00 +8°C° 0 mm 1 mps 737 mmHg 79%
    18:00 +6°C° 0 mm 2 mps 737 mmHg 81%
    19:00 +5°C° 0 mm 3 mps 737 mmHg 83%
    20:00 +4°C° 0 mm 3 mps 737 mmHg 85%
    21:00 +4°C° 0 mm 3 mps 737 mmHg 85%
    22:00 +4°C° 0 mm 3 mps 737 mmHg 85%
    23:00 +4°C° 0 mm 3 mps 737 mmHg 85%

    4 March, Wednesday

    Time Temperature Precipitation Wind Pressure Humidity
    00:00 +4°C° 0 mm 4 mps 737 mmHg 85%
    01:00 +4°C° 0 mm 4 mps 736 mmHg 85%
    02:00 +4°C° 0 mm 4 mps 736 mmHg 86%
    03:00 +4°C° 0 mm 4 mps 735 mmHg 88%
    04:00 +4°C° 0 mm 4 mps 735 mmHg 90%
    05:00 +4°C° 0 mm 3 mps 734 mmHg 92%
    06:00 +4°C° 0 mm 3 mps 734 mmHg 92%
    07:00 +4°C° 0 mm 3 mps 734 mmHg 93%
    08:00 +4°C° 0 mm 3 mps 734 mmHg 94%
    09:00 +5°C° 0 mm 3 mps 734 mmHg 90%
    10:00 +7°C° 0 mm 3 mps 735 mmHg 87%
    11:00 +8°C° 0 mm 3 mps 735 mmHg 83%
    12:00 +8°C° 0 mm 3 mps 735 mmHg 81%
    13:00 +8°C° 0 mm 2 mps 735 mmHg 78%
    14:00 +9°C° 0 mm 2 mps 735 mmHg 76%
    15:00 +8°C° 0 mm 2 mps 735 mmHg 77%
    16:00 +9°C° 0 mm 1 mps 734 mmHg 78%
    17:00 +9°C° 0 mm 1 mps 734 mmHg 80%
    18:00 +8°C° 0.7 mm 1 mps 734 mmHg 84%
    19:00 +7°C° 0.7 mm 2 mps 734 mmHg 88%
    20:00 +6°C° 0.7 mm 2 mps 734 mmHg 92%
    21:00 +6°C° 0.6 mm 2 mps 734 mmHg 93%
    22:00 +6°C° 0.6 mm 2 mps 734 mmHg 93%
    23:00 +6°C° 0.6 mm 2 mps 734 mmHg 94%
    Show more